User: anonymous   Login
Location: Unspecified
(0.0000°N, 0.0000°E)
Time: 09:00:01
(UTC+00:00)
Language:

STARLINK-11661 [DTC] - Orbit

View from above orbital plane
View from above orbital plane
View from above satellite
View from above satellite

Ground track
Ground track

The orbit is defined by the following mean orbital elements,

1 63676U          26145.48978946 +.00000000 +00000-0 +12629-2 0 00006
2 63676  43.0031 175.2057 0004145 261.2302  98.8096 15.70934030    00
Epoch (UTC): 25 May 2026 11:45:17
Eccentricity: 0.0004145
inclination: 43.0031°
perigee height: 353 km
apogee height: 359 km
right ascension of ascending node: 175.2057°
argument of perigee: 261.2302°
revolutions per day: 15.70934030
mean anomaly at epoch: 98.8096°

The dashed part of the orbit path shows where the satellite is in the earth's shadow,  

DLR